SCP
0 0 -0 0 0 0 0 0 0 0 0 0 0 0 0 0 0 0 -0 -0 -0 -0 -0 -0 -0 -0 -0 -0 -0 -0 -0 -0
0 -0 -0 0 0 0 0 0 0 0 -0 0 0 0 0 0 0 0 -0 -0 -0 -0 -0 -0 -0 -0 -0 -0 -0 -0 -0 -0
0 0 -0 0 0 0 0 0 0 0 0 0 0 0 0 0 0 0 -0 -0 -0 -0 -0 -0 -0 -0 -0 -0 -0 -0 -0 -0
0 0 0 0 0 0 0 0 0 0 0 0 0 0 -0 0 0 0 0 -0 -0 -0 -0 -0 -0 -0 -0 -0 -0 -0 -0 -0
-0 -0 0 0 0 0 0 0 0 0 0 0 0 0 0 -0 0 0 0 0 0 -0 -0 -0 -0 -0 0 0 0 -0 -0 -0
-0 0 0 0 0 0 0 0 0 0 0 1 0 0 0 0 0 0 0 0 0 0 0 0 0 0 0 0 0 0 0 0
-0 0 0 0 0 -0 0 0 0 0 0 0 0 0 0 0 0 0 0 0 0 0 0 0 0 0 0 0 0 0 0 0
0 0 0 0 0 0 0 0 0 0 0 0 0 0 0 0 0 0 0 0 0 0 0 0 0 0 0 0 0 0 0 0
0 0 0 0 0 0 0 0 0 0 0 0 0 0 0 0 0 0 0 0 0 0 0 0 0 0 0 0 0 0 0 0
0 0 0 0 -0 -0 0 0 0 0 0 0 0 0 0 0 0 0 0 0 0 0 0 0 0 0 0 0 0 0 0 0
0 0 0 0 0 -0 -0 0 0 0 0 0 0 0 0 0 0 0 0 0 0 0 0 0 0 0 0 0 0 0 0 0
0 0 0 0 0 -0 0 -0 -0 0 0 0 0 0 0 1 0 0 0 0 0 0 0 0 0 1 0 0 0 0 0 0
0 0 0 0 0 0 0 -0 -0 -0 0 0 0 0 0 0 1 1 1 0 0 0 0 0 0 0 1 0 0 0 0 0
0 0 0 0 0 0 0 0 0 -0 -0 0 0 0 0 0 0 1 1 1 1 0 0 0 0 0 0 0 0 0 0 0
0 0 0 0 0 -0 0 0 0 -0 -0 0 0 0 0 0 0 0 1 1 0 1 0 0 0 0 0 0 0 0 0 0
0 0 0 0 0 0 0 0 0 0 0 0 0 0 0 0 0 0 0 1 1 1 1 2 1 1 1 0 0 0 0 0
0 0 0 0 0 0 0 0 0 0 0 0 0 0 0 0 0 1 0 0 1 1 2 2 2 2 1 1 0 0 0 1
0 0 0 0 0 0 0 0 0 0 0 0 0 0 0 0 1 1 1 1 1 1 1 1 2 2 1 1 1 1 1 1
0 0 0 0 0 0 0 0 0 0 0 0 0 0 0 1 1 1 2 1 1 1 1 2 1 2 2 1 2 1 1 1
0 0 0 0 0 0 0 0 0 0 0 0 0 0 1 1 1 1 2 2 2 1 1 2 2 3 3 2 2 1 2 1
Wind_Speed_500mb
24 27 33 22 8 12 5 5 7 4 3 11 21 14 14 17 30 42 44 50 50 48 45 42 40 37 35 34 32 29 24 21
22 37 29 7 21 9 5 8 11 9 9 10 9 5 9 19 33 43 43 47 49 49 46 43 39 38 37 35 33 29 24 21
31 33 41 9 7 3 11 7 5 9 7 6 9 6 8 18 33 42 45 46 52 49 45 41 40 38 37 35 32 27 23 20
28 36 29 18 2 12 15 6 1 17 7 17 9 7 10 20 36 41 46 45 56 52 46 42 39 38 37 35 31 27 24 20
34 32 18 9 10 18 20 10 2 11 17 19 17 10 16 26 39 42 45 42 54 57 49 44 39 37 37 34 30 27 24 20
32 29 26 12 9 27 11 21 8 5 15 15 17 21 22 30 39 45 45 41 46 53 54 49 45 40 37 34 31 28 25 24
34 25 21 11 11 30 9 16 21 6 12 9 12 21 25 31 38 42 48 46 45 46 45 44 43 46 41 37 34 31 29 28
20 17 7 11 11 20 14 27 30 21 9 3 10 17 24 30 37 41 47 50 48 48 46 44 38 41 45 42 39 36 33 30
13 15 22 30 23 17 27 28 25 24 12 9 14 22 23 25 32 37 45 48 48 51 51 47 42 38 39 34 35 34 33 29
29 12 24 24 31 35 21 34 33 11 10 15 20 23 26 29 34 34 42 49 48 48 53 49 41 39 34 36 32 31 31 32
27 31 28 30 32 33 37 31 33 25 22 27 26 26 28 26 24 29 40 46 48 48 51 52 49 40 36 36 35 31 31 33
25 32 33 31 37 37 44 31 31 25 28 25 26 30 30 24 21 26 32 43 47 49 54 50 53 44 40 38 36 36 31 31
35 33 30 24 35 38 38 30 21 32 30 22 13 18 24 25 18 18 27 34 46 50 50 50 49 52 43 37 36 34 33 34
36 39 34 29 33 38 42 37 28 33 35 21 20 8 5 14 16 15 20 31 37 42 48 47 45 43 40 38 36 36 33 33
31 14 20 28 30 37 25 20 27 28 31 27 17 13 9 5 3 10 19 26 35 44 44 47 45 41 41 39 40 35 36 37
24 30 25 27 34 32 18 30 28 29 31 25 17 18 9 5 7 4 21 24 29 35 44 48 43 45 38 38 39 41 40 42
21 21 15 29 30 27 27 31 29 33 24 22 7 6 3 8 14 12 4 16 28 34 40 49 48 43 43 43 41 44 58 52
30 22 18 31 36 31 27 27 35 33 25 10 12 8 2 14 16 15 13 3 18 29 36 41 42 45 39 37 41 42 37 50
32 23 21 33 37 28 32 21 11 4 6 13 7 2 11 15 18 18 17 14 10 22 32 37 40 37 35 38 41 39 39 51
32 27 26 42 29 40 35 23 24 22 20 11 6 13 17 19 23 25 24 19 16 9 23 29 34 38 38 37 38 44 39 35
Wind_Direction_500mb
255 251 267 129 139 84 90 35 346 10 222 2 67 72 90 121 151 158 165 171 177 174 174 171 171 175 176 178 181 181 176 172
260 262 252 49 117 75 255 163 355 31 239 148 64 67 112 149 161 165 165 167 177 177 177 175 177 179 179 179 183 184 182 179
247 240 266 157 81 255 266 253 28 316 53 120 79 142 146 158 167 169 168 172 175 181 181 181 179 181 183 183 186 189 189 190
245 241 240 259 191 252 267 264 270 326 295 88 98 113 169 166 169 170 170 177 181 182 184 184 184 183 185 189 191 193 195 198
268 279 262 214 210 243 238 302 51 309 287 124 120 134 140 153 162 168 171 176 182 181 186 186 188 189 190 192 196 199 202 206
258 262 266 240 222 244 252 245 32 266 346 15 130 130 139 148 159 166 172 179 175 181 186 188 189 195 197 198 201 205 209 214
252 246 244 239 245 245 241 259 235 232 292 40 136 125 145 154 163 172 175 182 176 179 186 185 192 196 199 204 207 210 214 221
293 332 293 285 240 267 247 250 227 201 173 32 143 157 161 169 174 180 180 182 178 182 190 185 192 202 201 208 211 213 219 227
320 264 278 279 262 253 252 256 248 231 152 182 190 191 193 186 187 191 187 187 187 182 194 191 191 204 197 201 206 214 212 212
275 239 250 255 263 268 259 260 264 220 260 258 205 199 202 198 192 194 194 193 191 190 196 191 197 203 198 198 206 207 212 216
259 253 247 261 255 264 262 252 254 253 255 244 218 206 211 210 211 200 197 200 198 198 196 193 196 205 202 202 209 209 211 215
244 247 241 244 253 247 255 255 244 245 243 237 223 204 199 202 211 216 207 204 204 201 206 198 198 203 204 207 210 207 213 215
245 239 244 238 254 245 243 248 233 237 230 238 242 216 197 199 209 205 203 202 202 203 211 205 207 200 209 213 210 217 212 218
233 212 225 231 258 223 229 223 238 240 226 215 221 238 93 198 206 205 197 206 204 209 209 218 210 214 214 217 219 217 220 219
246 184 238 207 249 252 181 200 239 244 233 218 203 160 27 1 268 219 214 205 203 207 208 216 216 215 216 218 221 223 223 222
237 168 219 230 236 269 185 217 224 233 232 225 216 94 89 49 45 332 203 225 212 214 211 212 218 216 219 220 222 221 224 221
248 232 214 239 248 235 232 228 226 230 216 217 204 63 52 45 49 40 34 206 222 217 221 211 212 215 217 219 219 219 219 214
262 253 220 250 242 248 244 227 230 228 184 159 206 189 26 46 50 44 36 13 219 223 222 221 218 218 222 223 226 230 231 226
253 217 247 262 255 224 231 202 131 203 124 186 210 88 50 51 42 40 31 10 315 231 227 224 217 228 226 221 221 229 225 240
265 245 241 206 251 217 209 180 183 180 195 174 133 79 58 54 42 35 32 25 15 311 225 227 225 223 229 229 229 223 227 230
Wind_Speed_850mb
24 27 33 22 8 12 5 5 7 4 3 11 21 14 14 17 30 42 44 50 50 48 45 42 40 37 35 34 32 29 24 21
22 37 29 7 21 9 5 8 11 9 9 10 9 5 9 19 33 43 43 47 49 49 46 43 39 38 37 35 33 29 24 21
31 33 41 9 7 3 11 7 5 9 7 6 9 6 8 18 33 42 45 46 52 49 45 41 40 38 37 35 32 27 23 20
28 36 29 18 2 12 15 6 1 17 7 17 9 7 10 20 36 41 46 45 56 52 46 42 39 38 37 35 31 27 24 20
34 32 18 9 10 18 20 10 2 11 17 19 17 10 16 26 39 42 45 42 54 57 49 44 39 37 37 34 30 27 24 20
32 29 26 12 9 27 11 21 8 5 15 15 17 21 22 30 39 45 45 41 46 53 54 49 45 40 37 34 31 28 25 24
34 25 21 11 11 30 9 16 21 6 12 9 12 21 25 31 38 42 48 46 45 46 45 44 43 46 41 37 34 31 29 28
20 17 7 11 11 20 14 27 30 21 9 3 10 17 24 30 37 41 47 50 48 48 46 44 38 41 45 42 39 36 33 30
13 15 22 30 23 17 27 28 25 24 12 9 14 22 23 25 32 37 45 48 48 51 51 47 42 38 39 34 35 34 33 29
29 12 24 24 31 35 21 34 33 11 10 15 20 23 26 29 34 34 42 49 48 48 53 49 41 39 34 36 32 31 31 32
27 31 28 30 32 33 37 31 33 25 22 27 26 26 28 26 24 29 40 46 48 48 51 52 49 40 36 36 35 31 31 33
25 32 33 31 37 37 44 31 31 25 28 25 26 30 30 24 21 26 32 43 47 49 54 50 53 44 40 38 36 36 31 31
35 33 30 24 35 38 38 30 21 32 30 22 13 18 24 25 18 18 27 34 46 50 50 50 49 52 43 37 36 34 33 34
36 39 34 29 33 38 42 37 28 33 35 21 20 8 5 14 16 15 20 31 37 42 48 47 45 43 40 38 36 36 33 33
31 14 20 28 30 37 25 20 27 28 31 27 17 13 9 5 3 10 19 26 35 44 44 47 45 41 41 39 40 35 36 37
24 30 25 27 34 32 18 30 28 29 31 25 17 18 9 5 7 4 21 24 29 35 44 48 43 45 38 38 39 41 40 42
21 21 15 29 30 27 27 31 29 33 24 22 7 6 3 8 14 12 4 16 28 34 40 49 48 43 43 43 41 44 58 52
30 22 18 31 36 31 27 27 35 33 25 10 12 8 2 14 16 15 13 3 18 29 36 41 42 45 39 37 41 42 37 50
32 23 21 33 37 28 32 21 11 4 6 13 7 2 11 15 18 18 17 14 10 22 32 37 40 37 35 38 41 39 39 51
32 27 26 42 29 40 35 23 24 22 20 11 6 13 17 19 23 25 24 19 16 9 23 29 34 38 38 37 38 44 39 35
Wind_Direction_850mb
255 251 267 129 139 84 90 35 346 10 222 2 67 72 90 121 151 158 165 171 177 174 174 171 171 175 176 178 181 181 176 172
260 262 252 49 117 75 255 163 355 31 239 148 64 67 112 149 161 165 165 167 177 177 177 175 177 179 179 179 183 184 182 179
247 240 266 157 81 255 266 253 28 316 53 120 79 142 146 158 167 169 168 172 175 181 181 181 179 181 183 183 186 189 189 190
245 241 240 259 191 252 267 264 270 326 295 88 98 113 169 166 169 170 170 177 181 182 184 184 184 183 185 189 191 193 195 198
268 279 262 214 210 243 238 302 51 309 287 124 120 134 140 153 162 168 171 176 182 181 186 186 188 189 190 192 196 199 202 206
258 262 266 240 222 244 252 245 32 266 346 15 130 130 139 148 159 166 172 179 175 181 186 188 189 195 197 198 201 205 209 214
252 246 244 239 245 245 241 259 235 232 292 40 136 125 145 154 163 172 175 182 176 179 186 185 192 196 199 204 207 210 214 221
293 332 293 285 240 267 247 250 227 201 173 32 143 157 161 169 174 180 180 182 178 182 190 185 192 202 201 208 211 213 219 227
320 264 278 279 262 253 252 256 248 231 152 182 190 191 193 186 187 191 187 187 187 182 194 191 191 204 197 201 206 214 212 212
275 239 250 255 263 268 259 260 264 220 260 258 205 199 202 198 192 194 194 193 191 190 196 191 197 203 198 198 206 207 212 216
259 253 247 261 255 264 262 252 254 253 255 244 218 206 211 210 211 200 197 200 198 198 196 193 196 205 202 202 209 209 211 215
244 247 241 244 253 247 255 255 244 245 243 237 223 204 199 202 211 216 207 204 204 201 206 198 198 203 204 207 210 207 213 215
245 239 244 238 254 245 243 248 233 237 230 238 242 216 197 199 209 205 203 202 202 203 211 205 207 200 209 213 210 217 212 218
233 212 225 231 258 223 229 223 238 240 226 215 221 238 93 198 206 205 197 206 204 209 209 218 210 214 214 217 219 217 220 219
246 184 238 207 249 252 181 200 239 244 233 218 203 160 27 1 268 219 214 205 203 207 208 216 216 215 216 218 221 223 223 222
237 168 219 230 236 269 185 217 224 233 232 225 216 94 89 49 45 332 203 225 212 214 211 212 218 216 219 220 222 221 224 221
248 232 214 239 248 235 232 228 226 230 216 217 204 63 52 45 49 40 34 206 222 217 221 211 212 215 217 219 219 219 219 214
262 253 220 250 242 248 244 227 230 228 184 159 206 189 26 46 50 44 36 13 219 223 222 221 218 218 222 223 226 230 231 226
253 217 247 262 255 224 231 202 131 203 124 186 210 88 50 51 42 40 31 10 315 231 227 224 217 228 226 221 221 229 225 240
265 245 241 206 251 217 209 180 183 180 195 174 133 79 58 54 42 35 32 25 15 311 225 227 225 223 229 229 229 223 227 230